Wind_Speed
43 45 49 50 52 53 54 56 56 57 57 57 58 58 57 57 56 56 56 56 55 54 53 52 50 48 46 45 44 44 43 41 41 40 39 38 37 35 34 33 33 31 30 29 29 28 26 23 23 22 21 21 20 19 17 16 15 14 13 13 14 14 15
41 44 48 50 51 53 54 56 57 57 58 58 58 58 58 58 58 58 57 56 56 54 53 52 51 49 47 45 44 44 43 42 41 41 40 39 38 37 35 34 34 32 31 30 29 29 27 25 23 22 22 22 21 20 19 18 17 16 15 14 15 15 16
41 44 48 51 52 54 55 56 57 57 58 58 58 58 59 59 59 59 58 57 56 54 53 52 51 49 47 45 44 44 44 43 42 42 42 41 39 37 36 35 35 33 31 30 30 30 28 26 25 23 22 24 23 21 20 19 18 18 16 15 16 16 17
43 45 48 50 53 54 56 57 57 57 57 58 58 59 60 60 59 59 57 56 56 55 54 53 51 49 47 45 44 44 44 43 43 43 42 41 40 37 36 36 36 34 33 32 31 30 29 28 27 25 24 25 24 22 22 21 20 19 18 17 17 18 18
43 44 45 48 51 53 55 57 58 57 57 57 58 59 59 59 58 58 57 56 55 55 53 52 50 49 47 45 44 43 43 43 43 43 42 41 40 39 37 37 36 36 35 33 32 31 30 30 29 27 27 27 26 24 23 22 21 20 19 19 19 19 19
42 41 42 46 50 53 55 57 58 58 57 57 58 58 58 57 57 57 57 56 55 54 52 51 50 49 48 46 45 44 43 43 43 43 43 41 41 40 39 37 36 36 36 34 33 32 32 31 31 30 29 29 28 26 25 24 24 23 21 20 21 21 21
42 42 43 47 51 54 56 57 57 57 57 56 56 56 56 56 57 57 57 56 55 54 53 52 51 49 48 47 45 44 43 43 43 43 43 42 42 41 40 38 37 37 37 36 35 34 33 33 32 31 31 30 30 29 28 27 26 25 24 23 23 23 23
46 45 46 48 50 54 55 55 55 55 55 54 54 54 55 56 56 56 56 56 55 54 53 52 51 49 48 47 46 45 43 42 42 42 43 43 43 42 41 40 39 38 38 38 37 35 35 34 34 33 32 32 32 31 30 29 27 27 26 26 26 25 25
46 47 49 51 52 54 55 54 55 55 54 53 53 54 54 55 55 56 57 56 55 54 54 53 51 49 48 47 46 45 42 42 42 42 43 44 44 44 43 41 40 39 39 39 38 37 36 36 35 34 33 33 34 33 32 31 30 29 28 28 28 28 27
45 47 50 52 53 55 55 54 52 52 53 53 53 53 53 54 55 56 56 56 56 55 54 53 51 50 48 47 46 45 43 42 42 42 43 44 45 45 44 43 41 40 40 40 39 39 38 37 36 35 35 35 35 35 34 33 32 31 30 29 29 29 29
45 48 50 52 53 53 51 47 46 48 51 53 54 53 53 54 54 55 55 56 56 55 53 52 51 51 50 48 47 46 44 43 42 43 44 44 46 46 46 45 43 42 41 41 41 40 39 38 38 37 37 37 37 37 36 36 34 33 32 30 29 29 30
43 46 49 51 51 49 46 44 46 49 51 53 54 53 53 54 54 55 55 55 55 54 53 52 52 51 51 50 48 47 46 44 43 43 44 44 45 47 47 47 45 43 42 42 42 41 40 39 39 39 39 39 38 38 38 37 36 35 34 33 31 30 31
42 47 51 50 48 45 43 44 47 50 51 52 53 53 53 54 54 55 55 55 54 53 53 52 52 52 51 50 50 49 47 45 44 42 43 44 45 46 48 48 47 46 44 43 42 42 41 40 40 40 40 39 39 38 38 38 38 37 36 35 33 32 31
35 39 43 44 44 43 43 44 46 48 50 52 52 52 53 53 53 54 54 54 53 52 52 52 52 52 52 51 50 50 49 46 44 42 42 43 44 46 48 49 49 48 46 45 44 43 42 41 41 40 40 40 39 39 39 39 40 39 38 37 35 33 32
38 38 38 39 41 43 44 46 47 48 50 51 50 50 51 51 52 52 53 53 52 53 53 53 53 53 52 52 51 51 49 47 45 43 42 43 45 47 48 49 50 49 48 47 46 45 43 42 41 41 41 40 40 40 40 40 41 40 39 38 35 33 33
36 36 37 41 44 46 48 49 48 49 49 49 48 49 49 50 51 51 52 53 53 53 53 53 54 53 53 53 52 51 50 48 46 45 44 45 46 47 48 49 49 50 49 48 47 46 44 43 42 42 42 41 41 41 41 41 41 41 40 37 34 32 32
29 34 37 42 45 47 49 49 48 48 48 48 48 48 48 49 49 50 51 52 53 53 54 54 54 55 54 54 53 52 50 49 48 47 47 47 47 47 48 48 49 50 49 48 47 46 45 44 44 43 42 42 42 41 41 41 41 41 39 36 32 30 30
30 34 37 40 42 43 44 46 46 46 47 48 47 46 47 48 48 49 50 52 53 54 54 55 55 55 55 54 53 52 51 50 49 48 48 48 48 48 48 48 49 50 50 49 48 46 46 45 44 43 42 42 41 41 41 40 40 40 38 33 28 29 30
27 30 32 34 37 38 40 43 45 47 47 47 45 42 44 46 49 51 52 53 55 55 55 55 56 55 55 54 53 52 51 51 50 49 49 49 48 48 48 49 50 51 50 49 47 46 46 45 44 43 43 42 41 41 40 40 39 39 36 31 27 28 30
24 25 28 32 34 36 39 41 44 46 46 44 42 40 41 45 48 49 51 53 54 55 55 56 56 56 55 55 54 52 51 51 51 50 49 49 48 48 49 50 51 50 49 48 47 47 47 45 44 43 42 41 41 40 39 39 38 37 34 29 27 27 28
25 25 28 32 33 35 37 39 44 47 47 45 45 43 43 46 47 49 51 53 54 55 56 56 56 56 56 56 55 53 51 51 51 50 49 49 49 49 49 50 50 50 49 48 48 47 46 45 44 43 42 41 40 39 38 38 37 36 32 28 25 25 25
23 26 29 33 36 39 40 42 47 49 48 48 49 48 47 47 48 50 53 54 54 55 56 56 57 57 56 57 56 54 52 51 50 50 49 49 49 49 49 50 50 49 49 48 47 47 46 45 44 42 41 40 39 38 38 37 36 34 30 27 24 24 25
7 15 21 26 32 37 41 45 48 50 49 50 50 50 48 48 49 52 53 54 54 55 55 56 57 57 57 57 57 56 53 50 50 50 50 49 49 49 49 49 49 49 48 48 47 46 45 44 43 42 41 39 38 38 38 37 35 33 29 26 24 24 25
7 2 5 11 20 27 31 38 43 45 47 48 49 48 48 49 51 53 53 54 54 54 55 56 56 56 57 58 58 56 54 52 50 50 50 50 49 48 48 47 47 48 48 48 47 45 44 43 42 41 40 38 38 37 37 36 34 32 29 26 25 24 24
11 9 7 4 6 12 18 26 32 35 39 44 47 48 48 47 48 50 52 52 53 54 55 56 56 55 56 57 57 57 55 52 51 51 50 50 49 48 47 46 46 47 47 47 46 44 43 42 41 40 39 38 37 36 35 35 33 31 29 27 26 25 23
10 8 7 7 5 1 4 12 21 30 37 43 46 48 49 47 45 46 49 51 52 53 55 55 54 53 53 55 56 55 54 53 52 51 51 50 49 48 47 46 46 46 46 45 44 42 41 41 40 39 39 38 37 35 34 33 31 29 28 26 26 24 23
9 7 6 5 3 3 2 2 9 18 29 38 44 47 49 49 48 47 48 50 52 53 54 54 53 52 53 55 55 55 54 54 54 53 52 51 50 48 47 46 45 45 45 44 42 41 40 40 39 39 38 37 36 34 32 30 28 26 25 24 22 21 22
7 5 3 2 2 5 6 5 5 8 14 25 36 42 41 42 46 49 50 52 52 52 52 53 53 53 54 54 55 55 55 55 55 55 53 52 51 49 47 46 45 44 43 41 40 40 40 39 39 38 37 35 33 31 29 28 26 24 23 22 21 21 22
10 8 6 5 5 5 6 9 11 11 11 13 22 31 35 35 38 42 46 50 52 52 52 53 54 54 55 55 55 55 55 55 56 55 54 53 52 50 48 46 45 43 41 40 40 40 40 39 38 37 35 33 31 29 28 27 25 23 21 21 21 22 21
9 10 10 10 10 10 9 10 11 13 14 13 15 21 28 32 35 39 41 44 48 49 50 54 56 55 55 55 54 53 54 54 54 55 54 54 52 50 49 47 45 43 41 40 41 40 39 38 37 35 33 31 29 28 26 24 22 21 22 22 21 20 19
9 10 10 10 10 11 12 11 11 11 13 14 16 18 22 27 32 36 39 43 46 46 45 48 54 56 55 54 53 52 52 52 52 53 54 54 53 51 49 47 45 43 42 41 40 39 38 37 35 34 32 29 27 26 24 22 22 22 23 23 21 21 20
9 10 10 10 9 9 9 9 8 8 9 11 14 17 20 23 26 31 34 37 42 44 41 40 44 49 51 52 52 52 52 52 52 53 53 53 52 51 49 47 45 43 42 40 38 36 36 35 33 32 30 27 26 25 23 22 23 22 21 21 22 23 23
8 9 9 10 11 10 8 8 7 7 8 10 13 16 19 22 26 30 32 33 36 38 36 34 36 41 46 49 51 52 54 54 54 54 54 53 52 50 47 45 44 43 41 39 37 35 34 33 33 31 29 27 26 25 24 23 22 20 19 21 22 22 22
8 8 7 8 9 9 9 9 8 8 9 10 12 15 18 21 24 28 33 36 37 35 33 32 32 34 40 47 51 52 54 56 56 55 55 53 51 49 46 44 42 41 38 36 35 35 34 33 31 29 27 26 25 25 24 23 21 20 21 21 20 20 20
8 8 8 7 7 8 9 9 9 9 9 9 11 13 16 17 21 25 30 34 36 33 32 32 33 31 31 36 44 49 51 53 56 57 56 54 51 47 44 42 38 35 32 31 30 29 27 26 26 25 24 23 23 23 23 21 19 20 21 20 18 18 18
9 8 8 8 8 8 9 9 8 8 9 9 9 12 14 17 21 24 27 30 32 33 32 34 37 36 28 22 30 43 48 50 53 54 53 52 50 46 42 37 32 28 27 26 25 23 20 19 20 20 21 22 21 20 17 15 15 17 19 18 17 16 15
14 12 11 9 7 6 6 6 7 8 7 7 7 8 11 15 19 22 25 27 29 32 34 37 41 43 36 25 26 38 44 43 43 45 46 46 45 41 38 35 30 26 23 23 22 21 19 17 17 17 18 18 17 16 14 13 13 15 16 15 15 15 15
20 19 17 14 12 9 6 4 3 3 3 5 8 5 3 6 9 14 20 23 25 29 35 38 39 42 41 35 30 30 31 32 35 40 42 41 38 36 35 34 32 29 25 23 22 22 21 21 19 18 16 14 13 12 12 13 14 15 14 14 15 16 16
Wind_Direction
196 197 197 199 201 202 204 207 208 209 209 210 210 210 209 210 210 212 213 215 216 217 217 218 219 221 224 226 228 227 227 225 222 222 223 224 225 224 220 219 221 223 225 226 227 227 227 223 218 215 213 215 220 223 223 223 226 226 224 226 227 221 215
195 197 198 199 201 202 205 208 209 210 210 211 211 210 210 210 210 211 213 215 216 217 218 219 219 221 224 226 228 227 227 225 224 223 223 224 225 225 222 221 223 224 226 228 229 229 229 226 223 221 215 214 219 224 225 226 226 227 229 229 227 221 218
197 197 198 199 201 203 205 208 210 212 211 211 210 210 211 211 212 213 213 213 215 216 218 219 221 222 224 226 227 227 227 226 225 224 223 224 224 224 223 222 224 226 226 227 228 228 229 227 227 225 219 217 221 224 227 228 227 229 232 234 231 224 220
200 200 199 200 202 204 207 208 211 212 212 212 212 212 213 213 213 213 214 214 214 215 217 219 221 223 224 225 226 227 227 226 226 225 224 225 225 225 224 222 223 225 226 226 227 228 229 229 229 227 222 221 223 225 228 229 228 229 233 235 235 229 224
204 202 201 201 202 205 207 208 210 212 212 212 213 213 214 213 212 212 214 215 216 218 220 221 222 223 225 226 226 227 227 227 227 226 225 225 225 225 225 223 223 224 226 226 226 227 228 229 229 228 225 222 224 226 227 230 228 228 231 234 235 233 227
204 201 199 201 203 205 208 209 211 213 213 213 213 213 213 211 211 212 213 214 216 218 219 221 222 223 224 225 226 226 227 227 227 226 226 225 226 226 225 225 224 225 226 226 227 228 228 228 229 228 226 224 224 226 227 229 229 228 230 232 233 233 230
202 200 198 199 202 205 208 210 212 213 214 213 213 212 211 210 211 212 212 213 215 216 217 218 221 222 224 224 224 226 226 227 228 227 227 226 226 226 226 226 225 226 227 227 228 228 228 229 230 229 227 225 226 228 229 230 231 231 231 231 232 232 230
203 202 201 201 202 206 209 210 211 212 212 211 210 210 210 210 210 210 211 213 215 216 216 218 220 222 223 223 223 225 226 228 228 228 227 227 226 226 226 226 226 227 227 227 228 229 229 230 231 231 229 228 228 230 231 232 233 234 234 234 233 232 230
204 204 204 204 205 208 211 212 212 211 210 209 209 209 209 208 209 211 212 213 214 215 217 219 220 221 222 223 223 225 226 228 229 228 228 227 226 226 225 225 227 227 227 227 228 229 230 231 232 233 232 231 231 232 233 235 235 236 237 237 236 235 233
204 204 204 205 207 210 212 212 211 208 206 206 207 208 208 208 209 211 212 212 213 216 218 218 218 219 220 221 223 224 225 227 228 228 228 227 226 226 225 225 227 228 229 229 229 229 231 232 233 234 235 234 234 234 236 237 237 238 239 240 240 238 238
201 201 202 204 206 209 210 208 207 205 205 205 206 207 208 208 210 211 212 212 213 215 217 217 217 218 218 220 222 223 224 225 227 227 228 227 226 226 225 225 226 229 230 230 230 231 231 232 233 235 236 236 236 237 238 239 240 241 242 243 243 241 240
198 199 201 204 205 206 206 205 205 206 206 206 206 207 209 210 211 211 213 213 214 214 215 216 217 217 217 218 220 222 223 224 225 227 228 228 226 226 225 225 226 229 230 230 230 231 232 233 234 235 237 238 238 239 241 242 242 243 244 245 244 243 243
197 198 201 203 203 204 204 204 205 206 206 207 207 208 210 211 212 212 213 213 213 214 215 216 216 216 216 218 219 221 223 223 225 227 228 228 227 226 225 225 227 229 231 231 231 232 233 234 236 237 238 239 240 241 242 243 243 244 244 245 245 246 246
201 203 204 202 202 203 204 206 207 206 207 209 209 210 211 212 213 212 213 213 212 212 214 216 216 216 216 217 219 221 223 224 225 226 228 228 228 227 226 226 227 229 231 232 232 232 234 236 238 238 240 241 242 243 244 244 244 244 245 245 245 248 249
204 206 205 202 202 205 206 208 209 208 209 210 209 210 210 211 213 213 213 214 213 212 214 216 216 216 216 218 220 223 224 224 225 226 227 228 228 227 226 227 228 230 231 232 233 234 234 237 239 240 241 242 242 243 244 245 245 246 246 246 247 250 252
203 203 202 203 205 207 208 211 211 210 209 209 209 210 211 212 213 214 214 214 214 213 215 216 217 217 217 219 223 224 223 224 225 225 226 226 227 228 227 227 228 229 231 232 233 234 234 236 238 239 241 242 242 243 244 246 247 248 248 249 251 255 257
201 202 205 207 208 208 208 210 210 209 208 210 212 213 214 215 216 216 216 215 215 215 215 215 217 218 219 221 224 223 223 225 225 225 226 226 227 228 228 228 228 229 231 232 233 234 235 236 237 239 241 242 243 245 246 247 248 248 249 250 254 257 257
196 200 206 209 210 208 207 207 207 208 209 212 215 216 217 219 218 217 217 217 218 218 215 214 216 219 221 222 222 221 223 225 225 225 226 226 227 228 228 228 228 228 230 231 233 234 235 236 237 239 240 242 244 246 247 249 249 249 250 251 254 256 255
197 200 204 209 211 209 207 207 208 211 212 213 216 219 223 224 222 221 222 222 221 217 214 214 216 219 222 222 221 222 224 225 224 225 226 227 227 227 228 228 228 228 229 231 232 233 234 236 238 239 241 242 244 246 248 249 250 250 250 250 252 254 254
199 201 203 208 213 214 213 212 214 216 216 216 217 220 224 225 225 225 225 223 220 216 214 215 216 218 221 222 221 222 224 224 224 225 226 227 227 226 227 227 228 228 229 230 231 232 233 235 237 239 241 243 245 247 249 250 251 251 250 249 251 252 252
197 199 203 205 209 214 218 219 220 220 219 217 217 219 222 223 224 225 224 221 218 216 216 216 217 218 220 221 221 222 223 224 225 225 226 226 226 226 226 227 227 228 229 229 230 231 233 235 236 238 240 243 245 246 248 250 251 251 250 250 251 251 250
205 203 204 205 207 211 215 219 221 221 222 220 219 220 221 222 223 223 222 220 218 218 217 216 216 218 219 219 221 221 222 224 225 225 224 224 224 225 225 226 227 228 228 228 230 232 234 235 236 238 239 241 243 245 247 249 250 250 251 252 251 248 246
218 211 212 214 214 214 215 218 219 220 221 220 219 220 222 222 222 221 220 219 219 218 217 215 216 217 219 219 220 221 222 223 224 223 223 223 223 224 225 226 227 227 228 228 229 231 233 234 235 237 239 240 242 244 245 247 248 249 250 250 248 244 244
53 110 212 226 226 223 221 221 223 223 223 221 220 222 224 223 221 220 219 219 219 218 217 216 217 218 220 220 221 221 222 223 223 223 221 221 223 224 225 225 226 227 227 228 229 231 232 234 235 236 238 240 242 243 244 245 247 247 247 246 242 240 242
57 75 89 108 206 227 232 230 230 231 231 229 227 225 225 225 223 221 220 221 221 219 217 217 219 220 221 223 223 221 220 221 222 223 222 222 223 224 224 224 225 226 227 228 229 231 232 232 233 235 236 238 240 241 242 244 245 245 244 242 239 237 240
50 57 64 67 82 104 238 233 235 236 235 236 236 232 230 229 226 224 225 225 222 219 219 221 223 224 225 225 223 220 219 220 221 222 222 223 223 223 223 223 223 224 225 226 227 229 230 231 231 233 234 235 237 238 239 241 243 244 244 241 237 234 236
64 63 51 42 36 10 17 216 236 241 240 240 239 237 235 233 231 230 231 228 223 221 225 228 228 227 226 224 222 220 219 219 220 222 222 222 222 221 220 221 222 223 223 223 224 226 227 227 228 229 231 233 234 234 236 240 243 245 244 240 237 236 237
48 58 60 54 343 301 293 282 273 263 254 246 241 237 234 233 232 233 233 229 226 229 233 233 230 227 225 223 221 220 218 217 217 219 219 219 218 218 218 219 220 221 221 221 222 223 222 223 224 225 226 229 231 232 236 241 244 245 244 242 240 238 238
17 12 2 359 353 334 316 305 298 294 288 271 254 245 240 237 235 235 232 230 232 236 237 234 230 228 225 222 221 220 218 216 214 214 214 214 214 215 216 216 216 217 218 219 218 218 218 219 220 222 224 226 229 232 237 241 242 242 241 240 237 234 233
358 358 353 347 342 335 326 316 308 303 298 292 277 260 249 246 245 241 236 233 235 236 234 230 228 226 224 222 220 218 216 213 210 209 209 210 210 211 212 212 212 212 214 215 215 214 215 217 218 220 223 225 228 232 234 234 234 234 236 237 234 229 227
340 344 347 346 342 332 322 312 308 310 306 296 285 269 253 249 249 248 245 242 238 236 234 230 226 223 221 220 218 215 213 209 206 204 205 206 207 207 208 208 208 208 208 210 211 212 213 215 217 219 222 224 226 228 227 226 227 229 233 232 226 219 216
340 336 331 329 329 325 319 312 308 308 302 283 268 255 246 244 246 247 248 244 238 235 237 235 228 222 218 217 214 211 208 203 200 199 200 202 203 204 206 206 206 205 205 205 208 211 213 214 216 217 220 221 221 222 223 226 228 229 225 218 211 207 207
357 347 333 326 323 313 298 288 285 282 273 261 255 250 242 239 240 242 242 239 234 231 230 229 227 224 220 214 210 206 202 197 194 193 194 195 197 199 201 203 204 203 202 202 205 208 211 213 215 216 217 216 216 217 219 221 222 216 205 199 196 197 198
15 9 356 337 323 310 289 270 257 254 260 262 260 254 243 237 239 243 243 239 235 228 219 212 212 216 217 213 206 199 194 191 189 188 188 189 191 193 195 198 200 201 202 205 207 208 209 210 212 212 213 211 210 210 210 209 206 198 191 189 188 189 192
32 31 24 5 342 324 300 275 254 246 251 256 257 249 238 233 236 240 240 239 235 228 217 208 203 200 202 202 194 186 183 183 183 183 183 184 186 188 190 192 196 199 201 204 206 207 208 209 208 207 206 206 207 206 203 197 190 185 186 189 192 195 199
52 50 40 28 11 348 322 300 280 261 252 255 261 256 247 242 239 235 231 230 230 225 214 205 200 193 187 181 175 172 170 169 171 175 179 180 180 181 181 183 188 192 194 195 196 200 206 208 205 203 202 203 203 201 195 184 176 178 184 190 196 201 204
66 64 56 45 31 12 351 321 292 277 266 259 261 265 268 265 257 245 234 226 223 220 213 205 198 191 186 181 171 167 168 168 170 175 177 175 175 176 175 174 176 179 185 189 189 187 186 187 191 195 196 195 192 188 181 172 172 180 187 192 196 199 200
69 70 70 68 66 63 57 37 335 306 270 237 236 246 302 307 278 250 234 222 214 209 204 199 191 182 180 183 180 174 178 183 181 178 174 169 169 173 173 172 172 173 177 182 179 172 169 171 176 180 180 180 182 183 179 176 177 183 189 193 196 196 197
Height
1435 1437 1440 1442 1444 1447 1449 1452 1455 1457 1460 1462 1464 1468 1471 1473 1476 1479 1481 1484 1487 1490 1493 1496 1499 1501 1504 1508 1511 1513 1515 1517 1519 1521 1523 1526 1528 1530 1532 1533 1534 1536 1537 1539 1540 1542 1543 1545 1546 1548 1549 1550 1550 1551 1553 1553 1554 1554 1555 1556 1556 1557 1557
1432 1433 1435 1438 1440 1443 1445 1447 1450 1452 1455 1457 1460 1464 1466 1469 1471 1474 1476 1480 1483 1486 1489 1492 1495 1498 1501 1504 1507 1510 1512 1514 1516 1518 1520 1522 1525 1527 1529 1531 1532 1533 1535 1537 1538 1540 1541 1543 1544 1545 1547 1547 1548 1549 1550 1551 1552 1553 1554 1554 1555 1556 1556
1427 1428 1429 1432 1434 1437 1440 1442 1445 1447 1450 1452 1456 1459 1461 1463 1465 1468 1472 1476 1479 1483 1486 1489 1492 1494 1497 1501 1504 1506 1509 1511 1512 1514 1516 1519 1521 1524 1527 1528 1530 1531 1533 1535 1536 1537 1539 1540 1541 1543 1544 1545 1546 1547 1548 1549 1550 1551 1552 1553 1553 1554 1555
1421 1422 1424 1427 1429 1432 1435 1437 1440 1442 1445 1448 1450 1453 1455 1458 1461 1465 1469 1472 1475 1479 1482 1485 1488 1491 1494 1497 1500 1502 1505 1507 1509 1511 1513 1516 1519 1522 1524 1526 1527 1529 1530 1532 1534 1535 1536 1537 1538 1540 1541 1542 1543 1544 1546 1547 1548 1549 1550 1551 1551 1552 1553
1415 1417 1420 1423 1425 1428 1430 1433 1435 1437 1440 1443 1445 1448 1451 1455 1459 1462 1466 1468 1471 1474 1477 1481 1484 1487 1490 1493 1496 1498 1501 1504 1506 1508 1510 1513 1516 1519 1521 1522 1524 1525 1527 1529 1531 1532 1533 1534 1535 1537 1538 1539 1540 1542 1543 1545 1546 1547 1548 1548 1549 1550 1551
1411 1414 1417 1419 1421 1424 1426 1428 1430 1432 1436 1438 1441 1445 1448 1452 1456 1458 1462 1465 1468 1471 1474 1478 1480 1483 1486 1489 1492 1495 1498 1500 1502 1505 1508 1510 1513 1515 1517 1519 1521 1522 1524 1526 1527 1529 1530 1531 1532 1533 1535 1536 1538 1539 1541 1542 1543 1544 1545 1546 1547 1547 1548
1406 1409 1412 1414 1416 1419 1421 1423 1426 1429 1432 1435 1438 1442 1445 1449 1452 1455 1458 1461 1463 1467 1470 1473 1476 1479 1482 1485 1488 1491 1494 1496 1499 1502 1505 1507 1510 1511 1513 1516 1518 1519 1521 1523 1524 1525 1526 1528 1529 1530 1532 1533 1535 1536 1537 1539 1540 1541 1542 1543 1544 1545 1546
1400 1403 1407 1409 1412 1414 1417 1419 1422 1425 1428 1432 1435 1438 1441 1444 1448 1451 1454 1456 1460 1463 1465 1468 1471 1474 1478 1481 1484 1487 1490 1493 1496 1499 1502 1504 1506 1508 1510 1512 1514 1516 1518 1519 1520 1522 1523 1524 1526 1527 1529 1530 1532 1533 1534 1536 1537 1539 1539 1540 1541 1542 1543
1395 1398 1401 1404 1407 1410 1412 1414 1417 1420 1424 1428 1431 1434 1437 1440 1444 1447 1449 1452 1455 1458 1459 1463 1466 1470 1474 1477 1480 1483 1486 1489 1492 1495 1498 1500 1502 1504 1506 1508 1510 1512 1514 1515 1517 1519 1520 1521 1523 1524 1526 1527 1528 1530 1531 1533 1534 1535 1536 1537 1538 1540 1541
1392 1394 1397 1400 1403 1405 1408 1410 1413 1417 1420 1424 1427 1430 1433 1436 1439 1443 1446 1449 1451 1453 1455 1459 1462 1466 1469 1472 1475 1479 1482 1484 1487 1490 1493 1495 1497 1499 1502 1505 1507 1508 1510 1512 1513 1515 1517 1518 1520 1521 1523 1524 1525 1526 1527 1529 1531 1532 1533 1535 1536 1537 1538
1388 1390 1393 1396 1399 1402 1405 1408 1411 1414 1417 1419 1422 1425 1428 1431 1435 1439 1442 1445 1447 1450 1453 1456 1459 1462 1464 1468 1471 1474 1476 1479 1482 1485 1488 1490 1493 1495 1498 1501 1503 1505 1506 1508 1509 1511 1513 1515 1517 1518 1519 1520 1521 1522 1524 1525 1528 1529 1530 1532 1534 1535 1536
1385 1387 1390 1393 1395 1399 1403 1405 1408 1410 1412 1415 1418 1421 1424 1427 1431 1434 1437 1440 1444 1448 1451 1454 1456 1458 1460 1463 1466 1469 1471 1474 1477 1479 1482 1485 1488 1491 1494 1497 1499 1501 1502 1504 1505 1507 1509 1511 1513 1514 1515 1516 1518 1519 1521 1523 1525 1526 1528 1529 1531 1532 1533
1382 1383 1386 1388 1392 1397 1400 1402 1404 1406 1409 1412 1414 1417 1420 1423 1426 1429 1433 1436 1440 1444 1448 1451 1453 1455 1457 1459 1461 1464 1466 1468 1471 1474 1477 1480 1483 1487 1490 1492 1495 1496 1498 1500 1502 1504 1505 1507 1508 1510 1511 1513 1515 1516 1518 1520 1522 1523 1525 1527 1528 1530 1531
1383 1383 1384 1386 1389 1393 1396 1398 1400 1403 1405 1408 1411 1414 1416 1419 1423 1426 1429 1432 1436 1440 1444 1447 1450 1451 1453 1455 1457 1459 1460 1463 1466 1469 1473 1476 1479 1483 1485 1488 1490 1492 1495 1497 1498 1500 1501 1503 1505 1506 1508 1510 1512 1514 1515 1517 1518 1520 1521 1523 1526 1527 1528
1379 1380 1382 1384 1387 1389 1392 1394 1396 1398 1401 1404 1408 1411 1414 1417 1420 1423 1426 1429 1432 1436 1439 1442 1446 1447 1449 1451 1451 1453 1456 1459 1462 1465 1469 1472 1475 1478 1480 1483 1486 1488 1491 1493 1494 1496 1498 1500 1502 1504 1505 1507 1509 1511 1512 1513 1514 1516 1518 1520 1523 1525 1526
1374 1376 1379 1381 1383 1385 1387 1390 1392 1395 1398 1401 1405 1408 1411 1414 1416 1419 1422 1425 1428 1431 1434 1438 1441 1442 1444 1445 1446 1448 1452 1456 1458 1461 1464 1467 1469 1472 1475 1479 1482 1484 1487 1489 1491 1493 1495 1497 1499 1500 1502 1504 1505 1507 1508 1509 1510 1512 1515 1518 1520 1522 1523
1372 1374 1377 1378 1380 1381 1383 1386 1389 1392 1395 1399 1402 1405 1408 1410 1413 1415 1418 1421 1424 1426 1429 1433 1435 1437 1439 1440 1442 1445 1449 1451 1454 1456 1459 1461 1465 1468 1471 1474 1477 1480 1483 1485 1487 1490 1492 1494 1495 1497 1499 1500 1502 1504 1504 1505 1507 1509 1512 1515 1517 1519 1519
1370 1372 1374 1376 1378 1380 1382 1384 1387 1390 1393 1396 1399 1402 1404 1407 1409 1412 1414 1417 1419 1421 1425 1428 1430 1432 1434 1435 1439 1442 1445 1447 1449 1452 1454 1457 1460 1463 1467 1470 1473 1476 1479 1481 1484 1486 1488 1490 1491 1493 1495 1497 1498 1499 1500 1502 1504 1505 1509 1512 1514 1515 1515
1368 1370 1373 1376 1378 1379 1381 1383 1385 1387 1390 1393 1397 1399 1401 1403 1405 1407 1409 1411 1413 1417 1421 1423 1425 1427 1429 1431 1435 1438 1440 1443 1445 1447 1450 1452 1456 1459 1463 1466 1469 1471 1474 1477 1480 1483 1485 1486 1488 1490 1492 1493 1494 1495 1497 1498 1500 1502 1505 1509 1510 1511 1512
1367 1368 1371 1374 1377 1380 1382 1383 1384 1386 1388 1391 1394 1396 1397 1399 1401 1402 1404 1406 1409 1413 1416 1418 1420 1423 1425 1427 1430 1432 1435 1438 1440 1443 1445 1448 1452 1456 1459 1462 1464 1467 1471 1474 1477 1479 1481 1483 1485 1486 1488 1489 1490 1492 1494 1495 1496 1499 1502 1505 1507 1508 1509
1364 1366 1368 1370 1373 1376 1380 1382 1383 1383 1385 1388 1391 1392 1394 1395 1396 1398 1400 1403 1406 1408 1410 1412 1415 1417 1420 1422 1425 1428 1431 1433 1435 1438 1441 1445 1449 1452 1455 1457 1460 1464 1467 1470 1473 1475 1477 1479 1481 1482 1484 1485 1487 1489 1491 1492 1493 1496 1499 1502 1504 1505 1506
1364 1364 1366 1367 1369 1371 1374 1377 1378 1380 1382 1385 1387 1389 1390 1392 1393 1395 1397 1400 1402 1403 1405 1407 1410 1412 1415 1418 1420 1423 1426 1428 1430 1433 1437 1441 1444 1447 1450 1453 1457 1460 1463 1466 1469 1471 1473 1475 1477 1479 1480 1482 1484 1486 1487 1489 1490 1493 1496 1499 1500 1502 1502
1366 1367 1367 1368 1370 1370 1372 1374 1375 1377 1380 1381 1383 1385 1386 1388 1390 1391 1394 1396 1398 1400 1402 1403 1405 1407 1410 1412 1415 1417 1421 1423 1426 1429 1433 1437 1440 1443 1446 1449 1453 1456 1459 1462 1465 1467 1469 1471 1473 1475 1477 1479 1481 1483 1484 1485 1487 1489 1492 1494 1496 1498 1499
1367 1369 1370 1370 1371 1371 1372 1374 1375 1377 1379 1379 1380 1382 1383 1385 1386 1389 1391 1392 1394 1397 1399 1399 1400 1402 1404 1407 1409 1412 1416 1419 1423 1426 1429 1432 1435 1439 1442 1446 1449 1452 1455 1458 1461 1463 1465 1467 1470 1472 1474 1476 1478 1479 1481 1482 1483 1485 1488 1490 1492 1494 1495
1368 1370 1370 1370 1371 1372 1372 1374 1375 1376 1378 1378 1378 1380 1381 1383 1385 1387 1388 1389 1390 1393 1394 1395 1396 1397 1399 1401 1404 1408 1412 1416 1419 1422 1425 1428 1431 1434 1438 1442 1445 1448 1451 1454 1457 1459 1462 1464 1467 1469 1471 1473 1475 1476 1478 1479 1480 1483 1485 1487 1489 1490 1490
1369 1370 1370 1369 1370 1370 1371 1372 1373 1374 1375 1375 1376 1378 1379 1381 1383 1384 1385 1386 1387 1388 1389 1391 1392 1393 1395 1397 1401 1405 1409 1413 1416 1418 1421 1424 1427 1431 1434 1438 1441 1444 1447 1451 1453 1457 1459 1462 1464 1467 1469 1470 1472 1474 1475 1477 1479 1481 1483 1485 1486 1486 1487
1368 1369 1369 1369 1369 1368 1369 1370 1371 1371 1372 1373 1374 1376 1377 1378 1379 1380 1381 1382 1384 1384 1385 1386 1388 1390 1392 1395 1398 1401 1404 1406 1410 1413 1416 1420 1424 1428 1431 1434 1438 1441 1444 1447 1451 1454 1457 1459 1462 1464 1466 1468 1470 1472 1474 1476 1478 1480 1481 1483 1484 1485 1486
1366 1367 1368 1368 1368 1367 1367 1367 1368 1368 1369 1370 1371 1373 1374 1376 1376 1376 1377 1377 1379 1381 1382 1384 1386 1388 1390 1392 1394 1396 1398 1400 1403 1407 1412 1416 1420 1424 1427 1431 1434 1438 1441 1445 1448 1451 1454 1457 1459 1462 1464 1466 1468 1470 1472 1474 1476 1478 1479 1481 1483 1484 1484
1363 1364 1365 1365 1365 1365 1364 1365 1365 1365 1366 1367 1368 1369 1372 1374 1375 1376 1376 1375 1375 1376 1378 1379 1382 1385 1386 1388 1390 1392 1393 1395 1398 1401 1406 1410 1415 1419 1424 1427 1431 1435 1438 1442 1445 1448 1451 1454 1457 1459 1461 1463 1466 1468 1470 1472 1473 1475 1476 1478 1480 1481 1482
1362 1362 1362 1362 1362 1362 1362 1363 1363 1363 1364 1366 1367 1368 1369 1371 1372 1372 1373 1374 1375 1376 1375 1374 1376 1378 1381 1383 1386 1389 1391 1393 1395 1398 1401 1405 1411 1416 1420 1424 1428 1431 1435 1439 1442 1446 1449 1451 1454 1457 1459 1461 1464 1466 1468 1469 1471 1472 1473 1474 1476 1478 1480
1362 1362 1362 1362 1362 1361 1362 1363 1362 1362 1363 1364 1366 1367 1367 1368 1367 1366 1366 1368 1370 1373 1375 1374 1373 1373 1375 1379 1382 1385 1388 1390 1393 1395 1397 1401 1406 1411 1415 1420 1424 1428 1432 1436 1439 1443 1446 1449 1452 1454 1457 1459 1461 1463 1465 1466 1467 1468 1469 1471 1474 1475 1477
1362 1362 1362 1362 1363 1363 1363 1363 1362 1362 1362 1363 1364 1364 1364 1365 1364 1363 1362 1362 1364 1367 1371 1375 1376 1374 1373 1375 1377 1380 1383 1386 1388 1391 1394 1398 1402 1407 1412 1416 1420 1424 1428 1432 1436 1440 1444 1447 1449 1452 1454 1456 1458 1460 1461 1461 1463 1465 1466 1469 1470 1472 1474
1362 1362 1362 1362 1363 1363 1363 1363 1362 1361 1359 1359 1360 1360 1361 1362 1361 1360 1360 1359 1360 1361 1364 1371 1377 1379 1376 1373 1372 1374 1376 1379 1382 1385 1389 1393 1397 1403 1408 1413 1417 1420 1424 1428 1433 1437 1440 1443 1446 1448 1450 1452 1454 1456 1457 1458 1460 1462 1464 1467 1469 1471 1472
1361 1361 1361 1361 1362 1362 1361 1361 1360 1359 1357 1356 1355 1356 1357 1357 1358 1358 1358 1356 1355 1355 1358 1363 1371 1379 1380 1377 1372 1370 1370 1372 1375 1378 1383 1388 1393 1399 1405 1410 1414 1418 1422 1426 1430 1433 1436 1440 1442 1444 1446 1448 1450 1452 1454 1456 1457 1460 1462 1465 1468 1470 1471
1362 1362 1362 1362 1361 1361 1360 1360 1359 1357 1355 1354 1352 1352 1353 1354 1355 1355 1355 1353 1352 1353 1354 1357 1364 1373 1379 1377 1372 1369 1369 1371 1371 1373 1377 1383 1389 1396 1402 1408 1413 1417 1420 1424 1428 1431 1435 1437 1439 1441 1443 1445 1448 1450 1451 1454 1456 1458 1461 1464 1467 1469 1470
1363 1363 1363 1363 1362 1361 1360 1360 1359 1357 1356 1354 1352 1352 1353 1353 1354 1353 1352 1351 1350 1350 1351 1353 1357 1364 1372 1376 1373 1370 1369 1370 1369 1371 1375 1380 1386 1393 1400 1407 1413 1417 1420 1423 1427 1430 1433 1436 1438 1441 1443 1445 1447 1449 1451 1453 1455 1458 1460 1463 1465 1468 1469
1365 1364 1364 1364 1363 1362 1362 1361 1360 1358 1357 1355 1353 1353 1353 1353 1352 1351 1350 1348 1348 1348 1349 1350 1350 1353 1363 1375 1377 1372 1370 1371 1372 1375 1380 1382 1386 1393 1399 1405 1411 1416 1420 1423 1425 1428 1431 1435 1438 1441 1444 1446 1449 1450 1452 1453 1455 1457 1459 1461 1463 1465 1466
1367 1366 1365 1365 1364 1363 1363 1362 1360 1358 1357 1355 1354 1353 1355 1356 1356 1354 1350 1347 1347 1345 1345 1347 1347 1344 1351 1368 1377 1375 1375 1379 1382 1383 1384 1385 1389 1394 1399 1404 1409 1414 1418 1421 1424 1426 1430 1433 1436 1440 1443 1446 1448 1450 1451 1452 1453 1455 1457 1459 1461 1463 1464